Time,TemperatureF,DewpointF,PressureIn,WindDirection,WindDirectionDegrees,WindSpeedMPH,WindSpeedGustMPH,Humidity,HourlyPrecipIn,Conditions,Clouds,dailyrainin,SolarRadiationWatts/m^2,SoftwareType,DateUTC
2013-11-25 00:00:00,17.5,7.1,30.35,West,280,0.0,7.0,63,0.00,,---,0.00,0.00,VWS V14.01,2013-11-25 05:00:00,
2013-11-25 00:01:00,17.5,7.4,30.36,NNW,336,4.0,7.0,64,0.00,,---,0.00,0.00,VWS V14.01,2013-11-25 05:01:00,
2013-11-25 00:06:00,17.5,7.1,30.36,NNW,346,2.0,9.0,63,0.00,,---,0.00,0.00,VWS V14.01,2013-11-25 05:06:00,
2013-11-25 00:11:00,17.4,7.0,30.35,NW,312,0.0,9.0,63,0.00,,---,0.00,0.00,VWS V14.01,2013-11-25 05:11:00,
2013-11-25 00:16:00,17.3,6.9,30.36,North,360,0.0,9.0,63,0.00,,---,0.00,0.00,VWS V14.01,2013-11-25 05:16:00,
2013-11-25 00:21:00,17.3,6.9,30.36,NW,317,0.0,9.0,63,0.00,,---,0.00,0.00,VWS V14.01,2013-11-25 05:21:00,
2013-11-25 00:26:00,17.2,7.1,30.36,NNE,15,0.0,9.0,64,0.00,,---,0.00,0.00,VWS V14.01,2013-11-25 05:26:00,
2013-11-25 00:30:00,17.3,7.2,30.35,NNW,346,0.0,9.0,64,0.00,,---,0.00,0.00,VWS V14.01,2013-11-25 05:30:00,
2013-11-25 00:31:00,17.2,7.1,30.35,NNW,346,0.0,9.0,64,0.00,,---,0.00,0.00,VWS V14.01,2013-11-25 05:31:00,
2013-11-25 00:36:00,17.2,7.1,30.36,NW,314,0.0,3.0,64,0.00,,---,0.00,0.00,VWS V14.01,2013-11-25 05:36:00,
2013-11-25 00:41:00,17.2,6.8,30.36,NW,317,1.0,8.0,63,0.00,,---,0.00,0.00,VWS V14.01,2013-11-25 05:41:00,
2013-11-25 00:46:00,17.2,6.8,30.36,NNW,348,0.0,8.0,63,0.00,,---,0.00,0.00,VWS V14.01,2013-11-25 05:46:00,
2013-11-25 00:51:00,17.0,6.9,30.36,North,5,2.0,8.0,64,0.00,,---,0.00,0.00,VWS V14.01,2013-11-25 05:51:00,
2013-11-25 00:56:00,17.0,6.6,30.36,East,94,0.0,8.0,63,0.00,,---,0.00,0.00,VWS V14.01,2013-11-25 05:56:00,
2013-11-25 01:00:00,16.8,6.4,30.36,East,94,0.0,8.0,63,0.00,,---,0.00,0.00,VWS V14.01,2013-11-25 06:00:00,
2013-11-25 01:01:00,16.8,6.8,30.36,East,94,0.0,8.0,64,0.00,,---,0.00,0.00,VWS V14.01,2013-11-25 06:01:00,
2013-11-25 01:06:00,16.8,6.8,30.36,North,11,0.0,2.0,64,0.00,,---,0.00,0.00,VWS V14.01,2013-11-25 06:06:00,
2013-11-25 01:11:00,16.7,6.7,30.36,North,11,0.0,3.0,64,0.00,,---,0.00,0.00,VWS V14.01,2013-11-25 06:11:00,
2013-11-25 01:16:00,16.6,6.6,30.37,SSW,213,0.0,4.0,64,0.00,,---,0.00,0.00,VWS V14.01,2013-11-25 06:16:00,
2013-11-25 01:21:00,16.6,6.9,30.37,NW,322,0.0,4.0,65,0.00,,---,0.00,0.00,VWS V14.01,2013-11-25 06:21:00,
2013-11-25 01:26:00,16.6,6.6,30.37,North,355,0.0,5.0,64,0.00,,---,0.00,0.00,VWS V14.01,2013-11-25 06:26:00,
2013-11-25 01:30:00,16.3,6.6,30.38,North,355,0.0,5.0,65,0.00,,---,0.00,0.00,VWS V14.01,2013-11-25 06:30:00,
2013-11-25 01:31:00,16.3,6.6,30.38,North,355,0.0,5.0,65,0.00,,---,0.00,0.00,VWS V14.01,2013-11-25 06:31:00,
2013-11-25 01:36:00,16.2,6.5,30.38,North,355,0.0,0.0,65,0.00,,---,0.00,0.00,VWS V14.01,2013-11-25 06:36:00,
2013-11-25 01:41:00,16.1,6.4,30.38,NE,37,1.0,1.0,65,0.00,,---,0.00,0.00,VWS V14.01,2013-11-25 06:41:00,
2013-11-25 01:46:00,16.3,6.9,30.37,WSW,239,0.0,2.0,66,0.00,,---,0.00,0.00,VWS V14.01,2013-11-25 06:46:00,
2013-11-25 01:51:00,16.3,6.6,30.38,WNW,290,0.0,4.0,65,0.00,,---,0.00,0.00,VWS V14.01,2013-11-25 06:51:00,
2013-11-25 01:56:00,16.2,6.5,30.39,WNW,290,0.0,4.0,65,0.00,,---,0.00,0.00,VWS V14.01,2013-11-25 06:56:00,
2013-11-25 02:00:00,16.2,6.5,30.39,WNW,290,0.0,4.0,65,0.00,,---,0.00,0.00,VWS V14.01,2013-11-25 07:00:00,
2013-11-25 02:01:00,16.2,6.8,30.39,WNW,290,0.0,4.0,66,0.00,,---,0.00,0.00,VWS V14.01,2013-11-25 07:01:00,
2013-11-25 02:06:00,16.1,6.8,30.39,WNW,290,0.0,0.0,66,0.00,,---,0.00,0.00,VWS V14.01,2013-11-25 07:06:00,
2013-11-25 02:11:00,16.0,6.7,30.39,WNW,295,2.0,5.0,66,0.00,,---,0.00,0.00,VWS V14.01,2013-11-25 07:11:00,
2013-11-25 02:16:00,16.0,7.3,30.39,WNW,296,0.0,5.0,68,0.00,,---,0.00,0.00,VWS V14.01,2013-11-25 07:16:00,
2013-11-25 02:21:00,15.9,6.9,30.39,WNW,296,0.0,5.0,67,0.00,,---,0.00,0.00,VWS V14.01,2013-11-25 07:21:00,
2013-11-25 02:26:00,15.8,6.8,30.39,WNW,296,0.0,5.0,67,0.00,,---,0.00,0.00,VWS V14.01,2013-11-25 07:26:00,
2013-11-25 02:30:00,15.6,6.9,30.39,WNW,296,0.0,5.0,68,0.00,,---,0.00,0.00,VWS V14.01,2013-11-25 07:30:00,
2013-11-25 02:31:00,15.6,6.6,30.39,WNW,296,0.0,5.0,67,0.00,,---,0.00,0.00,VWS V14.01,2013-11-25 07:31:00,
2013-11-25 02:36:00,15.4,6.4,30.39,WNW,296,0.0,0.0,67,0.00,,---,0.00,0.00,VWS V14.01,2013-11-25 07:36:00,
2013-11-25 02:41:00,15.2,6.2,30.39,WNW,296,2.0,2.0,67,0.00,,---,0.00,0.00,VWS V14.01,2013-11-25 07:41:00,
2013-11-25 02:46:00,15.0,6.4,30.39,WNW,296,0.0,2.0,68,0.00,,---,0.00,0.00,VWS V14.01,2013-11-25 07:46:00,
2013-11-25 02:51:00,14.9,6.6,30.39,WNW,296,0.0,2.0,69,0.00,,---,0.00,0.00,VWS V14.01,2013-11-25 07:51:00,
2013-11-25 02:56:00,14.9,6.6,30.39,WNW,296,0.0,3.0,69,0.00,,---,0.00,0.00,VWS V14.01,2013-11-25 07:56:00,
2013-11-25 03:00:00,14.9,6.9,30.39,WNW,296,1.0,3.0,70,0.00,,---,0.00,0.00,VWS V14.01,2013-11-25 08:00:00,
2013-11-25 03:01:00,15.0,7.0,30.39,WNW,296,0.0,3.0,70,0.00,,---,0.00,0.00,VWS V14.01,2013-11-25 08:01:00,
2013-11-25 03:06:00,14.8,6.5,30.39,WNW,296,0.0,1.0,69,0.00,,---,0.00,0.00,VWS V14.01,2013-11-25 08:06:00,
2013-11-25 03:11:00,14.7,6.7,30.39,WNW,296,0.0,2.0,70,0.00,,---,0.00,0.00,VWS V14.01,2013-11-25 08:11:00,
2013-11-25 03:16:00,14.7,6.7,30.39,WNW,296,0.0,2.0,70,0.00,,---,0.00,0.00,VWS V14.01,2013-11-25 08:16:00,
2013-11-25 03:21:00,14.5,6.5,30.39,WNW,296,0.0,2.0,70,0.00,,---,0.00,0.00,VWS V14.01,2013-11-25 08:21:00,
2013-11-25 03:26:00,14.6,6.6,30.40,WNW,296,0.0,2.0,70,0.00,,---,0.00,0.00,VWS V14.01,2013-11-25 08:26:00,
2013-11-25 03:30:00,14.6,6.6,30.39,WNW,296,0.0,2.0,70,0.00,,---,0.00,0.00,VWS V14.01,2013-11-25 08:30:00,
2013-11-25 03:31:00,14.6,6.6,30.39,WNW,296,0.0,2.0,70,0.00,,---,0.00,0.00,VWS V14.01,2013-11-25 08:31:00,
2013-11-25 03:36:00,14.5,6.8,30.39,WNW,296,0.0,0.0,71,0.00,,---,0.00,0.00,VWS V14.01,2013-11-25 08:36:00,
2013-11-25 03:41:00,14.8,7.4,30.39,WNW,296,0.0,0.0,72,0.00,,---,0.00,0.00,VWS V14.01,2013-11-25 08:41:00,
2013-11-25 03:46:00,15.2,7.8,30.40,SW,225,0.0,3.0,72,0.00,,---,0.00,0.00,VWS V14.01,2013-11-25 08:46:00,
2013-11-25 03:51:00,15.4,7.7,30.40,WNW,286,0.0,3.0,71,0.00,,---,0.00,0.00,VWS V14.01,2013-11-25 08:51:00,
2013-11-25 03:56:00,15.4,7.7,30.41,WNW,286,0.0,3.0,71,0.00,,---,0.00,0.00,VWS V14.01,2013-11-25 08:56:00,
2013-11-25 04:00:00,15.4,7.7,30.41,WNW,292,0.0,5.0,71,0.00,,---,0.00,0.00,VWS V14.01,2013-11-25 09:00:00,
2013-11-25 04:01:00,15.4,7.7,30.41,WNW,292,0.0,5.0,71,0.00,,---,0.00,0.00,VWS V14.01,2013-11-25 09:01:00,
2013-11-25 04:06:00,15.4,7.7,30.40,North,349,1.0,4.0,71,0.00,,---,0.00,0.00,VWS V14.01,2013-11-25 09:06:00,
2013-11-25 04:11:00,15.7,8.0,30.41,West,271,0.0,4.0,71,0.00,,---,0.00,0.00,VWS V14.01,2013-11-25 09:11:00,
2013-11-25 04:16:00,15.9,8.2,30.41,West,271,0.0,4.0,71,0.00,,---,0.00,0.00,VWS V14.01,2013-11-25 09:16:00,
2013-11-25 04:21:00,15.9,7.9,30.41,WSW,253,0.0,4.0,70,0.00,,---,0.00,0.00,VWS V14.01,2013-11-25 09:21:00,
2013-11-25 04:26:00,16.0,8.0,30.42,WSW,253,0.0,4.0,70,0.00,,---,0.00,0.00,VWS V14.01,2013-11-25 09:26:00,
2013-11-25 04:30:00,16.0,8.0,30.42,WSW,253,0.0,4.0,70,0.00,,---,0.00,0.00,VWS V14.01,2013-11-25 09:30:00,
2013-11-25 04:31:00,16.0,8.0,30.42,WSW,253,0.0,4.0,70,0.00,,---,0.00,0.00,VWS V14.01,2013-11-25 09:31:00,
2013-11-25 04:36:00,15.9,7.5,30.42,WSW,253,0.0,2.0,69,0.00,,---,0.00,0.00,VWS V14.01,2013-11-25 09:36:00,
2013-11-25 04:41:00,15.8,7.8,30.42,WSW,253,0.0,2.0,70,0.00,,---,0.00,0.00,VWS V14.01,2013-11-25 09:41:00,
2013-11-25 04:46:00,15.7,7.7,30.42,WSW,253,0.0,2.0,70,0.00,,---,0.00,0.00,VWS V14.01,2013-11-25 09:46:00,
2013-11-25 04:51:00,15.7,7.3,30.43,WSW,253,0.0,2.0,69,0.00,,---,0.00,0.00,VWS V14.01,2013-11-25 09:51:00,
2013-11-25 04:56:00,15.7,7.7,30.43,North,9,0.0,3.0,70,0.00,,---,0.00,0.00,VWS V14.01,2013-11-25 09:56:00,
2013-11-25 05:00:00,15.7,8.0,30.43,West,260,0.0,3.0,71,0.00,,---,0.00,0.00,VWS V14.01,2013-11-25 10:00:00,
2013-11-25 05:01:00,15.7,7.7,30.43,West,260,0.0,3.0,70,0.00,,---,0.00,0.00,VWS V14.01,2013-11-25 10:01:00,
2013-11-25 05:06:00,15.8,7.8,30.43,West,260,0.0,0.0,70,0.00,,---,0.00,0.00,VWS V14.01,2013-11-25 10:06:00,
2013-11-25 05:11:00,15.7,7.7,30.44,SSW,198,0.0,2.0,70,0.00,,---,0.00,0.00,VWS V14.01,2013-11-25 10:11:00,
2013-11-25 05:16:00,15.6,7.6,30.44,SSW,198,0.0,2.0,70,0.00,,---,0.00,0.00,VWS V14.01,2013-11-25 10:16:00,
2013-11-25 05:21:00,15.6,7.6,30.44,SSW,198,0.0,2.0,70,0.00,,---,0.00,0.00,VWS V14.01,2013-11-25 10:21:00,
2013-11-25 05:26:00,15.6,7.9,30.44,SSW,198,0.0,2.0,71,0.00,,---,0.00,0.00,VWS V14.01,2013-11-25 10:26:00,
2013-11-25 05:30:00,15.4,7.4,30.44,SSW,198,0.0,2.0,70,0.00,,---,0.00,0.00,VWS V14.01,2013-11-25 10:30:00,
2013-11-25 05:31:00,15.5,7.8,30.44,SSW,198,0.0,2.0,71,0.00,,---,0.00,0.00,VWS V14.01,2013-11-25 10:31:00,
2013-11-25 05:36:00,15.3,7.6,30.44,SSW,198,0.0,0.0,71,0.00,,---,0.00,0.00,VWS V14.01,2013-11-25 10:36:00,
2013-11-25 05:41:00,15.2,7.2,30.44,SSW,198,0.0,0.0,70,0.00,,---,0.00,0.00,VWS V14.01,2013-11-25 10:41:00,
2013-11-25 05:46:00,15.0,7.3,30.45,SSW,198,0.0,0.0,71,0.00,,---,0.00,0.00,VWS V14.01,2013-11-25 10:46:00,
2013-11-25 05:51:00,14.7,7.6,30.45,SSW,198,1.0,1.0,73,0.00,,---,0.00,0.00,VWS V14.01,2013-11-25 10:51:00,
2013-11-25 05:56:00,14.4,7.3,30.45,SSW,198,0.0,1.0,73,0.00,,---,0.00,0.00,VWS V14.01,2013-11-25 10:56:00,
2013-11-25 06:00:00,14.0,7.3,30.45,SSW,198,0.0,1.0,74,0.00,,---,0.00,0.00,VWS V14.01,2013-11-25 11:00:00,
2013-11-25 06:01:00,14.1,7.3,30.45,SSW,198,0.0,1.0,74,0.00,,---,0.00,0.00,VWS V14.01,2013-11-25 11:01:00,
2013-11-25 06:06:00,13.8,7.1,30.45,SSW,198,0.0,0.0,74,0.00,,---,0.00,0.00,VWS V14.01,2013-11-25 11:06:00,
2013-11-25 06:11:00,13.6,7.2,30.45,SSW,198,0.0,0.0,75,0.00,,---,0.00,0.00,VWS V14.01,2013-11-25 11:11:00,
2013-11-25 06:16:00,13.3,7.2,30.45,SSW,198,0.0,0.0,76,0.00,,---,0.00,0.00,VWS V14.01,2013-11-25 11:16:00,
2013-11-25 06:21:00,13.1,7.0,30.45,SSW,198,1.0,1.0,76,0.00,,---,0.00,0.00,VWS V14.01,2013-11-25 11:21:00,
2013-11-25 06:26:00,12.8,6.7,30.46,SSW,198,0.0,1.0,76,0.00,,---,0.00,0.00,VWS V14.01,2013-11-25 11:26:00,
2013-11-25 06:30:00,12.7,7.2,30.46,SSW,198,0.0,1.0,78,0.00,,---,0.00,0.00,VWS V14.01,2013-11-25 11:30:00,
2013-11-25 06:31:00,12.8,7.2,30.46,SSW,198,0.0,1.0,78,0.00,,---,0.00,0.00,VWS V14.01,2013-11-25 11:31:00,
2013-11-25 06:36:00,12.6,6.8,30.46,SSW,198,0.0,0.0,77,0.00,,---,0.00,0.00,VWS V14.01,2013-11-25 11:36:00,
2013-11-25 06:41:00,12.5,7.0,30.46,SSW,198,0.0,0.0,78,0.00,,---,0.00,0.00,VWS V14.01,2013-11-25 11:41:00,
2013-11-25 06:46:00,12.3,6.8,30.46,SSW,198,0.0,0.0,78,0.00,,---,0.00,0.00,VWS V14.01,2013-11-25 11:46:00,
2013-11-25 06:51:00,12.1,6.8,30.46,SSW,198,0.0,0.0,79,0.00,,---,0.00,0.00,VWS V14.01,2013-11-25 11:51:00,
2013-11-25 07:03:00,12.1,7.1,30.46,SSW,198,0.0,0.0,80,0.00,,---,0.00,0.00,VWS V14.01,2013-11-25 12:03:00,
2013-11-25 07:08:00,11.8,7.1,30.46,SSW,198,0.0,0.0,81,0.00,,---,0.00,7.00,VWS V14.01,2013-11-25 12:08:00,
2013-11-25 07:13:00,11.8,7.1,30.46,SSW,198,0.0,0.0,81,0.00,,---,0.00,9.00,VWS V14.01,2013-11-25 12:13:00,
2013-11-25 07:18:00,11.9,7.2,30.46,SSW,198,0.0,0.0,81,0.00,,---,0.00,11.00,VWS V14.01,2013-11-25 12:18:00,
2013-11-25 07:23:00,11.9,7.2,30.47,SSW,198,0.0,0.0,81,0.00,,---,0.00,12.00,VWS V14.01,2013-11-25 12:23:00,
2013-11-25 07:28:00,11.8,7.1,30.47,SSW,198,0.0,0.0,81,0.00,,---,0.00,14.00,VWS V14.01,2013-11-25 12:28:00,
2013-11-25 07:30:00,11.8,7.4,30.47,SSW,198,0.0,0.0,82,0.00,,---,0.00,14.00,VWS V14.01,2013-11-25 12:30:00,
2013-11-25 07:33:00,11.8,7.4,30.47,SSW,198,0.0,0.0,82,0.00,,---,0.00,16.00,VWS V14.01,2013-11-25 12:33:00,
2013-11-25 07:38:00,11.7,7.3,30.47,SSW,198,0.0,0.0,82,0.00,,---,0.00,25.00,VWS V14.01,2013-11-25 12:38:00,
2013-11-25 07:43:00,11.7,7.3,30.47,SSW,198,0.0,0.0,82,0.00,,---,0.00,30.00,VWS V14.01,2013-11-25 12:43:00,
2013-11-25 07:48:00,11.8,7.6,30.47,SSW,198,0.0,0.0,83,0.00,,---,0.00,51.00,VWS V14.01,2013-11-25 12:48:00,
2013-11-25 07:53:00,12.3,8.1,30.47,SSW,198,0.0,0.0,83,0.00,,---,0.00,63.00,VWS V14.01,2013-11-25 12:53:00,
2013-11-25 07:58:00,13.1,8.9,30.47,SSW,198,0.0,0.0,83,0.00,,---,0.00,91.00,VWS V14.01,2013-11-25 12:58:00,
2013-11-25 08:00:00,13.9,9.4,30.47,SSW,198,0.0,0.0,82,0.00,,---,0.00,100.00,VWS V14.01,2013-11-25 13:00:00,
2013-11-25 08:03:00,14.1,9.6,30.47,SSW,198,0.0,0.0,82,0.00,,---,0.00,102.00,VWS V14.01,2013-11-25 13:03:00,
2013-11-25 08:08:00,15.2,9.6,30.48,SSW,198,0.0,0.0,78,0.00,,---,0.00,111.00,VWS V14.01,2013-11-25 13:08:00,
2013-11-25 08:13:00,16.2,10.0,30.48,SSW,198,0.0,0.0,76,0.00,,---,0.00,125.00,VWS V14.01,2013-11-25 13:13:00,
2013-11-25 08:18:00,17.0,10.2,30.48,SSW,198,0.0,2.0,74,0.00,,---,0.00,139.00,VWS V14.01,2013-11-25 13:18:00,
2013-11-25 08:23:00,17.5,10.0,30.48,SSW,198,0.0,2.0,72,0.00,,---,0.00,153.00,VWS V14.01,2013-11-25 13:23:00,
2013-11-25 08:28:00,18.2,10.7,30.48,SSW,198,0.0,2.0,72,0.00,,---,0.00,169.00,VWS V14.01,2013-11-25 13:28:00,
2013-11-25 08:30:00,18.8,11.0,30.48,SSW,198,0.0,2.0,71,0.00,,---,0.00,181.00,VWS V14.01,2013-11-25 13:30:00,
2013-11-25 08:33:00,18.9,11.1,30.48,SSW,198,0.0,0.0,71,0.00,,---,0.00,185.00,VWS V14.01,2013-11-25 13:33:00,
2013-11-25 08:38:00,19.4,10.9,30.48,SSW,198,0.0,3.0,69,0.00,,---,0.00,199.00,VWS V14.01,2013-11-25 13:38:00,
2013-11-25 08:43:00,19.5,10.3,30.48,ESE,115,2.0,4.0,67,0.00,,---,0.00,214.00,VWS V14.01,2013-11-25 13:43:00,
2013-11-25 08:48:00,19.7,10.5,30.48,ESE,115,0.0,4.0,67,0.00,,---,0.00,227.00,VWS V14.01,2013-11-25 13:48:00,
2013-11-25 08:53:00,20.0,10.5,30.48,ESE,115,0.0,4.0,66,0.00,,---,0.00,241.00,VWS V14.01,2013-11-25 13:53:00,
2013-11-25 08:58:00,20.2,11.0,30.48,ESE,115,0.0,4.0,67,0.00,,---,0.00,253.00,VWS V14.01,2013-11-25 13:58:00,
2013-11-25 09:00:00,20.7,11.8,30.48,ESE,115,1.0,4.0,68,0.00,,---,0.00,264.00,VWS V14.01,2013-11-25 14:00:00,
2013-11-25 09:03:00,20.8,11.6,30.48,ESE,115,1.0,2.0,67,0.00,,---,0.00,265.00,VWS V14.01,2013-11-25 14:03:00,
2013-11-25 09:08:00,21.3,12.1,30.48,ESE,115,2.0,2.0,67,0.00,,---,0.00,278.00,VWS V14.01,2013-11-25 14:08:00,
2013-11-25 09:13:00,21.5,11.2,30.48,ESE,115,0.0,3.0,64,0.00,,---,0.00,285.00,VWS V14.01,2013-11-25 14:13:00,
2013-11-25 09:18:00,21.7,11.8,30.48,NE,55,0.0,3.0,65,0.00,,---,0.00,295.00,VWS V14.01,2013-11-25 14:18:00,
2013-11-25 09:23:00,22.0,11.7,30.49,NE,55,0.0,3.0,64,0.00,,---,0.00,306.00,VWS V14.01,2013-11-25 14:23:00,
2013-11-25 09:28:00,22.2,12.2,30.48,ENE,61,0.0,3.0,65,0.00,,---,0.00,316.00,VWS V14.01,2013-11-25 14:28:00,
2013-11-25 09:30:00,22.5,12.9,30.48,ENE,61,2.0,3.0,66,0.00,,---,0.00,325.00,VWS V14.01,2013-11-25 14:30:00,
2013-11-25 09:33:00,22.4,12.4,30.49,SSW,205,0.0,4.0,65,0.00,,---,0.00,325.00,VWS V14.01,2013-11-25 14:33:00,
2013-11-25 09:38:00,22.1,12.1,30.48,WSW,238,0.0,4.0,65,0.00,,---,0.00,332.00,VWS V14.01,2013-11-25 14:38:00,
2013-11-25 09:43:00,21.9,12.3,30.48,SSW,208,3.0,6.0,66,0.00,,---,0.00,346.00,VWS V14.01,2013-11-25 14:43:00,
2013-11-25 09:48:00,22.2,12.9,30.48,ESE,115,0.0,6.0,67,0.00,,---,0.00,352.00,VWS V14.01,2013-11-25 14:48:00,
2013-11-25 09:53:00,23.1,13.4,30.48,WSW,257,1.0,6.0,66,0.00,,---,0.00,357.00,VWS V14.01,2013-11-25 14:53:00,
2013-11-25 09:58:00,23.3,13.3,30.48,WSW,257,2.0,6.0,65,0.00,,---,0.00,366.00,VWS V14.01,2013-11-25 14:58:00,
2013-11-25 10:00:00,23.6,13.6,30.49,WSW,257,0.0,6.0,65,0.00,,---,0.00,373.00,VWS V14.01,2013-11-25 15:00:00,
2013-11-25 10:03:00,23.6,13.2,30.49,WSW,257,0.0,0.0,64,0.00,,---,0.00,374.00,VWS V14.01,2013-11-25 15:03:00,
2013-11-25 10:08:00,23.8,13.8,30.48,WNW,288,4.0,4.0,65,0.00,,---,0.00,381.00,VWS V14.01,2013-11-25 15:08:00,
2013-11-25 10:13:00,24.0,13.2,30.49,SSW,193,2.0,6.0,63,0.00,,---,0.00,388.00,VWS V14.01,2013-11-25 15:13:00,
2013-11-25 10:18:00,23.9,13.5,30.48,South,189,0.0,6.0,64,0.00,,---,0.00,397.00,VWS V14.01,2013-11-25 15:18:00,
2013-11-25 10:23:00,24.1,13.3,30.48,WSW,254,0.0,6.0,63,0.00,,---,0.00,388.00,VWS V14.01,2013-11-25 15:23:00,
2013-11-25 10:28:00,24.3,13.9,30.48,NW,321,3.0,6.0,64,0.00,,---,0.00,392.00,VWS V14.01,2013-11-25 15:28:00,
2013-11-25 10:30:00,24.7,13.9,30.47,NW,316,0.0,6.0,63,0.00,,---,0.00,404.00,VWS V14.01,2013-11-25 15:30:00,
2013-11-25 10:33:00,24.8,14.0,30.48,NW,316,0.0,0.0,63,0.00,,---,0.00,397.00,VWS V14.01,2013-11-25 15:33:00,
2013-11-25 10:38:00,25.3,14.1,30.47,NW,316,1.0,3.0,62,0.00,,---,0.00,417.00,VWS V14.01,2013-11-25 15:38:00,
2013-11-25 10:43:00,25.4,14.2,30.47,NW,316,0.0,3.0,62,0.00,,---,0.00,454.00,VWS V14.01,2013-11-25 15:43:00,
2013-11-25 10:48:00,25.4,14.2,30.47,NW,320,0.0,3.0,62,0.00,,---,0.00,374.00,VWS V14.01,2013-11-25 15:48:00,
2013-11-25 10:53:00,25.5,13.9,30.47,NNE,22,0.0,3.0,61,0.00,,---,0.00,411.00,VWS V14.01,2013-11-25 15:53:00,
2013-11-25 10:58:00,25.8,14.2,30.46,ESE,123,0.0,3.0,61,0.00,,---,0.00,429.00,VWS V14.01,2013-11-25 15:58:00,
2013-11-25 11:00:00,26.1,14.1,30.46,West,271,4.0,6.0,60,0.00,,---,0.00,466.00,VWS V14.01,2013-11-25 16:00:00,
2013-11-25 11:03:00,26.1,13.8,30.46,West,271,0.0,4.0,59,0.00,,---,0.00,420.00,VWS V14.01,2013-11-25 16:03:00,
2013-11-25 11:08:00,25.8,13.9,30.46,West,259,2.0,4.0,60,0.00,,---,0.00,323.00,VWS V14.01,2013-11-25 16:08:00,
2013-11-25 11:13:00,25.7,14.1,30.45,West,259,0.0,4.0,61,0.00,,---,0.00,302.00,VWS V14.01,2013-11-25 16:13:00,
2013-11-25 11:18:00,26.1,14.5,30.45,West,264,4.0,5.0,61,0.00,,---,0.00,204.00,VWS V14.01,2013-11-25 16:18:00,
2013-11-25 11:23:00,26.2,14.6,30.45,NNW,336,0.0,5.0,61,0.00,,---,0.00,179.00,VWS V14.01,2013-11-25 16:23:00,
2013-11-25 11:28:00,26.4,14.8,30.44,SSE,157,2.0,5.0,61,0.00,,---,0.00,239.00,VWS V14.01,2013-11-25 16:28:00,
2013-11-25 11:30:00,26.6,14.2,30.44,WSW,246,0.0,5.0,59,0.00,,---,0.00,227.00,VWS V14.01,2013-11-25 16:30:00,
2013-11-25 11:33:00,26.6,14.2,30.44,WSW,246,1.0,2.0,59,0.00,,---,0.00,227.00,VWS V14.01,2013-11-25 16:33:00,
2013-11-25 11:38:00,26.8,15.2,30.44,WSW,250,3.0,5.0,61,0.00,,---,0.00,253.00,VWS V14.01,2013-11-25 16:38:00,
2013-11-25 11:43:00,26.7,14.3,30.44,WSW,246,2.0,5.0,59,0.00,,---,0.00,155.00,VWS V14.01,2013-11-25 16:43:00,
2013-11-25 11:48:00,26.8,14.4,30.44,West,275,0.0,5.0,59,0.00,,---,0.00,128.00,VWS V14.01,2013-11-25 16:48:00,
2013-11-25 11:53:00,27.1,15.1,30.44,NW,323,4.0,5.0,60,0.00,,---,0.00,151.00,VWS V14.01,2013-11-25 16:53:00,
2013-11-25 11:58:00,27.2,14.8,30.43,WNW,290,0.0,5.0,59,0.00,,---,0.00,181.00,VWS V14.01,2013-11-25 16:58:00,
2013-11-25 12:00:00,27.4,15.0,30.43,WNW,295,3.0,6.0,59,0.00,,---,0.00,125.00,VWS V14.01,2013-11-25 17:00:00,
2013-11-25 12:03:00,27.5,15.1,30.43,WNW,296,2.0,3.0,59,0.00,,---,0.00,125.00,VWS V14.01,2013-11-25 17:03:00,
2013-11-25 12:08:00,27.6,15.2,30.43,West,281,3.0,3.0,59,0.00,,---,0.00,185.00,VWS V14.01,2013-11-25 17:08:00,
2013-11-25 12:13:00,28.2,15.7,30.43,NW,306,4.0,7.0,59,0.00,,---,0.00,181.00,VWS V14.01,2013-11-25 17:13:00,
2013-11-25 12:18:00,28.4,15.1,30.43,SW,234,2.0,7.0,57,0.00,,---,0.00,197.00,VWS V14.01,2013-11-25 17:18:00,
2013-11-25 12:23:00,28.4,15.5,30.42,SW,233,1.0,7.0,58,0.00,,---,0.00,204.00,VWS V14.01,2013-11-25 17:23:00,
2013-11-25 12:28:00,28.8,15.5,30.42,West,275,2.0,7.0,57,0.00,,---,0.00,125.00,VWS V14.01,2013-11-25 17:28:00,
2013-11-25 12:30:00,28.9,15.2,30.42,South,180,4.0,7.0,56,0.00,,---,0.00,162.00,VWS V14.01,2013-11-25 17:30:00,
2013-11-25 12:33:00,28.9,15.2,30.42,SSW,200,4.0,5.0,56,0.00,,---,0.00,162.00,VWS V14.01,2013-11-25 17:33:00,
2013-11-25 12:38:00,29.0,15.7,30.42,West,263,0.0,5.0,57,0.00,,---,0.00,271.00,VWS V14.01,2013-11-25 17:38:00,
2013-11-25 12:43:00,29.7,16.4,30.41,WNW,284,2.0,5.0,57,0.00,,---,0.00,272.00,VWS V14.01,2013-11-25 17:43:00,
2013-11-25 12:48:00,29.9,16.1,30.41,South,171,0.0,5.0,56,0.00,,---,0.00,264.00,VWS V14.01,2013-11-25 17:48:00,
2013-11-25 12:53:00,30.0,15.8,30.41,WSW,246,3.0,5.0,55,0.00,,---,0.00,178.00,VWS V14.01,2013-11-25 17:53:00,
2013-11-25 12:58:00,29.8,16.0,30.41,SSW,199,2.0,6.0,56,0.00,,---,0.00,432.00,VWS V14.01,2013-11-25 17:58:00,
2013-11-25 13:00:00,30.0,16.2,30.41,SW,221,0.0,6.0,56,0.00,,---,0.00,461.00,VWS V14.01,2013-11-25 18:00:00,
2013-11-25 13:03:00,30.0,15.8,30.41,SW,221,0.0,0.0,55,0.00,,---,0.00,454.00,VWS V14.01,2013-11-25 18:03:00,
2013-11-25 13:08:00,30.3,16.5,30.40,SSW,202,3.0,5.0,56,0.00,,---,0.00,436.00,VWS V14.01,2013-11-25 18:08:00,
2013-11-25 13:13:00,30.1,15.5,30.40,West,259,2.0,8.0,54,0.00,,---,0.00,411.00,VWS V14.01,2013-11-25 18:13:00,
2013-11-25 13:18:00,29.9,15.3,30.40,SW,219,3.0,8.0,54,0.00,,---,0.00,390.00,VWS V14.01,2013-11-25 18:18:00,
2013-11-25 13:23:00,30.1,15.9,30.40,SW,223,4.0,8.0,55,0.00,,---,0.00,373.00,VWS V14.01,2013-11-25 18:23:00,
2013-11-25 13:28:00,30.5,16.3,30.40,SW,219,2.0,8.0,55,0.00,,---,0.00,362.00,VWS V14.01,2013-11-25 18:28:00,
2013-11-25 13:30:00,30.5,15.4,30.39,SE,140,1.0,8.0,53,0.00,,---,0.00,355.00,VWS V14.01,2013-11-25 18:30:00,
2013-11-25 13:33:00,30.5,15.9,30.39,SE,141,0.0,3.0,54,0.00,,---,0.00,353.00,VWS V14.01,2013-11-25 18:33:00,
2013-11-25 13:38:00,30.8,16.1,30.39,South,178,4.0,5.0,54,0.00,,---,0.00,346.00,VWS V14.01,2013-11-25 18:38:00,
2013-11-25 13:43:00,30.7,15.6,30.39,WSW,246,4.0,7.0,53,0.00,,---,0.00,338.00,VWS V14.01,2013-11-25 18:43:00,
2013-11-25 13:48:00,30.8,16.1,30.39,SSE,160,1.0,7.0,54,0.00,,---,0.00,329.00,VWS V14.01,2013-11-25 18:48:00,
2013-11-25 13:53:00,31.0,15.9,30.39,SW,215,2.0,7.0,53,0.00,,---,0.00,320.00,VWS V14.01,2013-11-25 18:53:00,
2013-11-25 13:58:00,30.9,15.8,30.39,SE,127,0.0,7.0,53,0.00,,---,0.00,309.00,VWS V14.01,2013-11-25 18:58:00,
2013-11-25 14:00:00,31.2,16.1,30.39,SW,234,4.0,7.0,53,0.00,,---,0.00,301.00,VWS V14.01,2013-11-25 19:00:00,
2013-11-25 14:03:00,31.2,15.6,30.39,WSW,237,4.0,6.0,52,0.00,,---,0.00,301.00,VWS V14.01,2013-11-25 19:03:00,
2013-11-25 14:08:00,31.2,16.1,30.39,SW,219,3.0,6.0,53,0.00,,---,0.00,290.00,VWS V14.01,2013-11-25 19:08:00,
2013-11-25 14:13:00,31.4,16.3,30.39,South,173,4.0,6.0,53,0.00,,---,0.00,281.00,VWS V14.01,2013-11-25 19:13:00,
2013-11-25 14:18:00,31.9,15.8,30.39,WSW,257,2.0,6.0,51,0.00,,---,0.00,271.00,VWS V14.01,2013-11-25 19:18:00,
2013-11-25 14:23:00,32.2,16.1,30.39,WSW,258,3.0,6.0,51,0.00,,---,0.00,260.00,VWS V14.01,2013-11-25 19:23:00,
2013-11-25 14:28:00,32.0,15.9,30.39,West,259,4.0,6.0,51,0.00,,---,0.00,246.00,VWS V14.01,2013-11-25 19:28:00,
2013-11-25 14:30:00,31.8,15.8,30.39,SE,145,4.0,7.0,51,0.00,,---,0.00,77.00,VWS V14.01,2013-11-25 19:30:00,
2013-11-25 14:33:00,31.7,15.7,30.39,SE,132,2.0,4.0,51,0.00,,---,0.00,74.00,VWS V14.01,2013-11-25 19:33:00,
2013-11-25 14:38:00,31.4,15.4,30.38,SSE,155,0.0,4.0,51,0.00,,---,0.00,83.00,VWS V14.01,2013-11-25 19:38:00,
2013-11-25 14:43:00,31.5,15.9,30.38,SE,144,0.0,4.0,52,0.00,,---,0.00,104.00,VWS V14.01,2013-11-25 19:43:00,
2013-11-25 14:48:00,31.2,15.2,30.39,SSW,213,5.0,5.0,51,0.00,,---,0.00,95.00,VWS V14.01,2013-11-25 19:48:00,
2013-11-25 14:53:00,30.7,15.2,30.38,SW,217,0.0,5.0,52,0.00,,---,0.00,60.00,VWS V14.01,2013-11-25 19:53:00,
2013-11-25 14:58:00,30.7,15.2,30.38,WNW,284,0.0,6.0,52,0.00,,---,0.00,91.00,VWS V14.01,2013-11-25 19:58:00,
2013-11-25 15:00:00,30.7,15.2,30.38,SW,233,0.0,6.0,52,0.00,,---,0.00,74.00,VWS V14.01,2013-11-25 20:00:00,
2013-11-25 15:03:00,30.7,15.2,30.38,SW,233,0.0,0.0,52,0.00,,---,0.00,86.00,VWS V14.01,2013-11-25 20:03:00,
2013-11-25 15:08:00,30.7,15.2,30.37,SSW,207,0.0,4.0,52,0.00,,---,0.00,88.00,VWS V14.01,2013-11-25 20:08:00,
2013-11-25 15:13:00,30.6,15.1,30.37,SSE,161,0.0,5.0,52,0.00,,---,0.00,44.00,VWS V14.01,2013-11-25 20:13:00,
2013-11-25 15:18:00,30.6,15.5,30.37,SSE,161,0.0,5.0,53,0.00,,---,0.00,35.00,VWS V14.01,2013-11-25 20:18:00,
2013-11-25 15:23:00,30.5,15.4,30.38,SE,142,3.0,5.0,53,0.00,,---,0.00,30.00,VWS V14.01,2013-11-25 20:23:00,
2013-11-25 15:28:00,30.3,15.2,30.38,SW,217,1.0,5.0,53,0.00,,---,0.00,21.00,VWS V14.01,2013-11-25 20:28:00,
2013-11-25 15:30:00,30.0,15.0,30.38,West,273,0.0,5.0,53,0.00,,---,0.00,19.00,VWS V14.01,2013-11-25 20:30:00,
2013-11-25 15:33:00,29.9,14.9,30.38,West,273,0.0,0.0,53,0.00,,---,0.00,19.00,VWS V14.01,2013-11-25 20:33:00,
2013-11-25 15:38:00,29.7,15.1,30.38,West,273,0.0,1.0,54,0.00,,---,0.00,21.00,VWS V14.01,2013-11-25 20:38:00,
2013-11-25 15:43:00,29.6,15.0,30.38,West,273,0.0,3.0,54,0.00,,---,0.00,19.00,VWS V14.01,2013-11-25 20:43:00,
2013-11-25 15:48:00,29.4,15.2,30.37,West,273,0.0,3.0,55,0.00,,---,0.00,18.00,VWS V14.01,2013-11-25 20:48:00,
2013-11-25 15:53:00,29.3,15.1,30.38,West,273,0.0,3.0,55,0.00,,---,0.00,12.00,VWS V14.01,2013-11-25 20:53:00,
2013-11-25 15:58:00,29.2,15.1,30.38,West,273,0.0,3.0,55,0.00,,---,0.00,11.00,VWS V14.01,2013-11-25 20:58:00,
2013-11-25 16:00:00,29.0,15.3,30.38,West,273,0.0,4.0,56,0.00,,---,0.00,11.00,VWS V14.01,2013-11-25 21:00:00,
2013-11-25 16:03:00,29.0,15.3,30.38,West,273,0.0,0.0,56,0.00,,---,0.00,11.00,VWS V14.01,2013-11-25 21:03:00,
2013-11-25 16:08:00,29.0,15.3,30.38,West,273,0.0,0.0,56,0.00,,---,0.00,9.00,VWS V14.01,2013-11-25 21:08:00,
2013-11-25 16:13:00,28.9,15.2,30.38,West,273,0.0,2.0,56,0.00,,---,0.00,7.00,VWS V14.01,2013-11-25 21:13:00,
2013-11-25 16:18:00,28.8,15.1,30.37,West,273,0.0,2.0,56,0.00,,---,0.00,5.00,VWS V14.01,2013-11-25 21:18:00,
2013-11-25 16:23:00,28.7,15.0,30.37,West,273,0.0,2.0,56,0.00,,---,0.00,0.00,VWS V14.01,2013-11-25 21:23:00,
2013-11-25 16:28:00,28.7,15.0,30.38,West,273,0.0,2.0,56,0.00,,---,0.00,0.00,VWS V14.01,2013-11-25 21:28:00,
2013-11-25 16:30:00,28.7,15.0,30.38,West,273,0.0,2.0,56,0.00,,---,0.00,0.00,VWS V14.01,2013-11-25 21:30:00,
2013-11-25 16:33:00,28.7,15.4,30.38,West,273,0.0,0.0,57,0.00,,---,0.00,0.00,VWS V14.01,2013-11-25 21:33:00,
2013-11-25 16:38:00,28.7,15.0,30.38,West,273,0.0,0.0,56,0.00,,---,0.00,0.00,VWS V14.01,2013-11-25 21:38:00,
2013-11-25 16:43:00,28.6,15.3,30.38,West,273,0.0,0.0,57,0.00,,---,0.00,0.00,VWS V14.01,2013-11-25 21:43:00,
2013-11-25 16:48:00,28.6,14.9,30.38,West,273,0.0,0.0,56,0.00,,---,0.00,0.00,VWS V14.01,2013-11-25 21:48:00,
2013-11-25 16:53:00,28.5,15.2,30.38,South,174,2.0,2.0,57,0.00,,---,0.00,0.00,VWS V14.01,2013-11-25 21:53:00,
2013-11-25 16:58:00,28.7,15.0,30.38,SW,232,2.0,4.0,56,0.00,,---,0.00,0.00,VWS V14.01,2013-11-25 21:58:00,
2013-11-25 17:00:00,28.8,15.1,30.37,South,183,0.0,5.0,56,0.00,,---,0.00,0.00,VWS V14.01,2013-11-25 22:00:00,
2013-11-25 17:03:00,28.8,15.1,30.37,South,183,0.0,0.0,56,0.00,,---,0.00,0.00,VWS V14.01,2013-11-25 22:03:00,
2013-11-25 17:08:00,28.8,15.1,30.37,South,180,0.0,1.0,56,0.00,,---,0.00,0.00,VWS V14.01,2013-11-25 22:08:00,
2013-11-25 17:13:00,29.0,14.9,30.37,WNW,288,0.0,5.0,55,0.00,,---,0.00,0.00,VWS V14.01,2013-11-25 22:13:00,
2013-11-25 17:18:00,29.1,15.0,30.37,West,261,0.0,5.0,55,0.00,,---,0.00,0.00,VWS V14.01,2013-11-25 22:18:00,
2013-11-25 17:23:00,29.3,14.7,30.36,West,261,0.0,5.0,54,0.00,,---,0.00,0.00,VWS V14.01,2013-11-25 22:23:00,
2013-11-25 17:28:00,29.4,14.8,30.36,SSE,163,0.0,7.0,54,0.00,,---,0.00,0.00,VWS V14.01,2013-11-25 22:28:00,
2013-11-25 17:30:00,29.6,15.0,30.36,West,269,0.0,7.0,54,0.00,,---,0.00,0.00,VWS V14.01,2013-11-25 22:30:00,
2013-11-25 17:33:00,29.6,15.0,30.36,WNW,285,0.0,3.0,54,0.00,,---,0.00,0.00,VWS V14.01,2013-11-25 22:33:00,
2013-11-25 17:38:00,29.6,15.0,30.37,SW,226,0.0,5.0,54,0.00,,---,0.00,0.00,VWS V14.01,2013-11-25 22:38:00,
2013-11-25 17:43:00,29.6,15.0,30.36,WSW,255,2.0,6.0,54,0.00,,---,0.00,0.00,VWS V14.01,2013-11-25 22:43:00,
2013-11-25 17:48:00,29.7,15.1,30.36,SW,229,5.0,6.0,54,0.00,,---,0.00,0.00,VWS V14.01,2013-11-25 22:48:00,
2013-11-25 17:53:00,29.7,15.1,30.35,WSW,248,3.0,6.0,54,0.00,,---,0.00,0.00,VWS V14.01,2013-11-25 22:53:00,
2013-11-25 17:58:00,29.7,15.1,30.35,SW,229,0.0,6.0,54,0.00,,---,0.00,0.00,VWS V14.01,2013-11-25 22:58:00,
2013-11-25 18:00:00,29.8,15.2,30.35,West,259,0.0,6.0,54,0.00,,---,0.00,0.00,VWS V14.01,2013-11-25 23:00:00,
2013-11-25 18:03:00,29.7,15.1,30.35,West,259,0.0,0.0,54,0.00,,---,0.00,0.00,VWS V14.01,2013-11-25 23:03:00,
2013-11-25 18:08:00,29.8,15.2,30.35,WSW,238,3.0,4.0,54,0.00,,---,0.00,0.00,VWS V14.01,2013-11-25 23:08:00,
2013-11-25 18:13:00,29.8,15.2,30.35,WSW,238,0.0,4.0,54,0.00,,---,0.00,0.00,VWS V14.01,2013-11-25 23:13:00,
2013-11-25 18:18:00,29.8,15.2,30.35,WSW,238,0.0,4.0,54,0.00,,---,0.00,0.00,VWS V14.01,2013-11-25 23:18:00,
2013-11-25 18:23:00,29.7,15.1,30.35,WSW,238,3.0,4.0,54,0.00,,---,0.00,0.00,VWS V14.01,2013-11-25 23:23:00,
2013-11-25 18:28:00,29.8,15.2,30.35,WSW,251,0.0,5.0,54,0.00,,---,0.00,0.00,VWS V14.01,2013-11-25 23:28:00,
2013-11-25 18:30:00,29.8,15.2,30.35,WSW,251,1.0,5.0,54,0.00,,---,0.00,0.00,VWS V14.01,2013-11-25 23:30:00,
2013-11-25 18:33:00,29.8,15.2,30.35,WSW,251,0.0,1.0,54,0.00,,---,0.00,0.00,VWS V14.01,2013-11-25 23:33:00,
2013-11-25 18:38:00,29.9,15.3,30.35,SW,228,0.0,5.0,54,0.00,,---,0.00,0.00,VWS V14.01,2013-11-25 23:38:00,
2013-11-25 18:43:00,29.9,15.3,30.35,SW,228,0.0,5.0,54,0.00,,---,0.00,0.00,VWS V14.01,2013-11-25 23:43:00,
2013-11-25 18:48:00,29.8,15.6,30.36,West,262,0.0,5.0,55,0.00,,---,0.00,0.00,VWS V14.01,2013-11-25 23:48:00,
2013-11-25 18:53:00,29.8,15.2,30.36,SW,227,0.0,5.0,54,0.00,,---,0.00,0.00,VWS V14.01,2013-11-25 23:53:00,
2013-11-25 18:58:00,29.7,15.1,30.36,WSW,245,0.0,6.0,54,0.00,,---,0.00,0.00,VWS V14.01,2013-11-25 23:58:00,
2013-11-25 19:00:00,29.7,15.1,30.36,SSE,160,1.0,6.0,54,0.00,,---,0.00,0.00,VWS V14.01,2013-11-26 00:00:00,
2013-11-25 19:03:00,29.7,15.1,30.36,SW,231,6.0,6.0,54,0.00,,---,0.00,0.00,VWS V14.01,2013-11-26 00:03:00,
2013-11-25 19:08:00,29.7,15.1,30.36,WSW,248,0.0,6.0,54,0.00,,---,0.00,0.00,VWS V14.01,2013-11-26 00:08:00,
2013-11-25 19:13:00,29.7,15.5,30.35,WSW,248,0.0,6.0,55,0.00,,---,0.00,0.00,VWS V14.01,2013-11-26 00:13:00,
2013-11-25 19:18:00,29.7,15.1,30.36,WSW,244,0.0,6.0,54,0.00,,---,0.00,0.00,VWS V14.01,2013-11-26 00:18:00,
2013-11-25 19:23:00,29.7,15.5,30.35,WSW,238,0.0,7.0,55,0.00,,---,0.00,0.00,VWS V14.01,2013-11-26 00:23:00,
2013-11-25 19:28:00,29.8,15.6,30.35,WSW,240,5.0,7.0,55,0.00,,---,0.00,0.00,VWS V14.01,2013-11-26 00:28:00,
2013-11-25 19:30:00,29.9,15.7,30.35,South,181,0.0,7.0,55,0.00,,---,0.00,0.00,VWS V14.01,2013-11-26 00:30:00,
2013-11-25 19:33:00,29.9,15.7,30.35,South,187,3.0,3.0,55,0.00,,---,0.00,0.00,VWS V14.01,2013-11-26 00:33:00,
2013-11-25 19:38:00,30.0,15.8,30.35,West,264,0.0,6.0,55,0.00,,---,0.00,0.00,VWS V14.01,2013-11-26 00:38:00,
2013-11-25 19:43:00,30.0,15.8,30.35,WSW,244,0.0,6.0,55,0.00,,---,0.00,0.00,VWS V14.01,2013-11-26 00:43:00,
2013-11-25 19:48:00,29.9,16.1,30.35,WSW,247,0.0,6.0,56,0.00,,---,0.00,0.00,VWS V14.01,2013-11-26 00:48:00,
2013-11-25 19:53:00,29.9,16.1,30.34,NNW,332,0.0,6.0,56,0.00,,---,0.00,0.00,VWS V14.01,2013-11-26 00:53:00,
2013-11-25 19:58:00,29.9,16.1,30.34,WNW,288,0.0,6.0,56,0.00,,---,0.00,0.00,VWS V14.01,2013-11-26 00:58:00,
2013-11-25 20:00:00,29.9,16.1,30.34,SW,219,0.0,6.0,56,0.00,,---,0.00,0.00,VWS V14.01,2013-11-26 01:00:00,
2013-11-25 20:03:00,29.8,16.0,30.34,SW,219,0.0,0.0,56,0.00,,---,0.00,0.00,VWS V14.01,2013-11-26 01:03:00,
2013-11-25 20:08:00,29.9,16.5,30.34,West,271,1.0,8.0,57,0.00,,---,0.00,0.00,VWS V14.01,2013-11-26 01:08:00,
2013-11-25 20:13:00,29.9,16.5,30.33,West,262,4.0,8.0,57,0.00,,---,0.00,0.00,VWS V14.01,2013-11-26 01:13:00,
2013-11-25 20:18:00,29.9,16.5,30.33,SSW,198,0.0,8.0,57,0.00,,---,0.00,0.00,VWS V14.01,2013-11-26 01:18:00,
2013-11-25 20:23:00,29.9,16.5,30.34,West,262,7.0,8.0,57,0.00,,---,0.00,0.00,VWS V14.01,2013-11-26 01:23:00,
2013-11-25 20:28:00,30.0,16.6,30.33,WNW,283,0.0,8.0,57,0.00,,---,0.00,0.00,VWS V14.01,2013-11-26 01:28:00,
2013-11-25 20:30:00,30.1,16.7,30.33,WSW,247,4.0,8.0,57,0.00,,---,0.00,0.00,VWS V14.01,2013-11-26 01:30:00,
2013-11-25 20:33:00,30.1,16.7,30.33,WSW,247,0.0,4.0,57,0.00,,---,0.00,0.00,VWS V14.01,2013-11-26 01:33:00,
2013-11-25 20:38:00,30.1,16.7,30.33,WSW,237,3.0,7.0,57,0.00,,---,0.00,0.00,VWS V14.01,2013-11-26 01:38:00,
2013-11-25 20:43:00,30.2,16.8,30.33,SW,223,2.0,11.0,57,0.00,,---,0.00,0.00,VWS V14.01,2013-11-26 01:43:00,
2013-11-25 20:48:00,30.3,16.9,30.33,SW,225,2.0,11.0,57,0.00,,---,0.00,0.00,VWS V14.01,2013-11-26 01:48:00,
2013-11-25 20:53:00,30.3,16.9,30.34,SW,218,4.0,12.0,57,0.00,,---,0.00,0.00,VWS V14.01,2013-11-26 01:53:00,
2013-11-25 20:58:00,30.4,17.0,30.34,WSW,257,0.0,12.0,57,0.00,,---,0.00,0.00,VWS V14.01,2013-11-26 01:58:00,
2013-11-25 21:00:00,30.4,17.0,30.33,South,187,2.0,12.0,57,0.00,,---,0.00,0.00,VWS V14.01,2013-11-26 02:00:00,
2013-11-25 21:03:00,30.4,17.0,30.33,West,265,8.0,8.0,57,0.00,,---,0.00,0.00,VWS V14.01,2013-11-26 02:03:00,
2013-11-25 21:08:00,30.4,17.0,30.33,South,190,0.0,8.0,57,0.00,,---,0.00,0.00,VWS V14.01,2013-11-26 02:08:00,
2013-11-25 21:13:00,30.3,16.9,30.33,South,178,7.0,8.0,57,0.00,,---,0.00,0.00,VWS V14.01,2013-11-26 02:13:00,
2013-11-25 21:18:00,30.4,17.0,30.33,SW,221,0.0,8.0,57,0.00,,---,0.00,0.00,VWS V14.01,2013-11-26 02:18:00,
2013-11-25 21:23:00,30.3,16.9,30.33,SW,229,5.0,8.0,57,0.00,,---,0.00,0.00,VWS V14.01,2013-11-26 02:23:00,
2013-11-25 21:28:00,30.4,16.6,30.33,WNW,285,0.0,8.0,56,0.00,,---,0.00,0.00,VWS V14.01,2013-11-26 02:28:00,
2013-11-25 21:30:00,30.4,16.6,30.33,WSW,251,0.0,8.0,56,0.00,,---,0.00,0.00,VWS V14.01,2013-11-26 02:30:00,
2013-11-25 21:33:00,30.4,16.6,30.33,WSW,251,4.0,4.0,56,0.00,,---,0.00,0.00,VWS V14.01,2013-11-26 02:33:00,
2013-11-25 21:38:00,30.4,16.6,30.33,SW,223,4.0,4.0,56,0.00,,---,0.00,0.00,VWS V14.01,2013-11-26 02:38:00,
2013-11-25 21:43:00,30.4,16.6,30.33,SW,234,5.0,7.0,56,0.00,,---,0.00,0.00,VWS V14.01,2013-11-26 02:43:00,
2013-11-25 21:48:00,30.4,16.6,30.32,South,187,4.0,7.0,56,0.00,,---,0.00,0.00,VWS V14.01,2013-11-26 02:48:00,
2013-11-25 21:53:00,30.3,16.9,30.32,WSW,245,6.0,7.0,57,0.00,,---,0.00,0.00,VWS V14.01,2013-11-26 02:53:00,
2013-11-25 21:58:00,30.3,16.9,30.31,SW,216,2.0,8.0,57,0.00,,---,0.00,0.00,VWS V14.01,2013-11-26 02:58:00,
2013-11-25 22:00:00,30.3,16.9,30.31,SW,226,5.0,8.0,57,0.00,,---,0.00,0.00,VWS V14.01,2013-11-26 03:00:00,
2013-11-25 22:03:00,30.3,16.9,30.31,West,259,5.0,5.0,57,0.00,,---,0.00,0.00,VWS V14.01,2013-11-26 03:03:00,
2013-11-25 22:08:00,30.2,16.4,30.31,SW,227,4.0,9.0,56,0.00,,---,0.00,0.00,VWS V14.01,2013-11-26 03:08:00,
2013-11-25 22:13:00,30.2,16.4,30.31,WSW,242,2.0,9.0,56,0.00,,---,0.00,0.00,VWS V14.01,2013-11-26 03:13:00,
2013-11-25 22:18:00,30.2,16.4,30.31,WSW,254,0.0,9.0,56,0.00,,---,0.00,0.00,VWS V14.01,2013-11-26 03:18:00,
2013-11-25 22:23:00,30.2,16.4,30.31,SW,232,2.0,10.0,56,0.00,,---,0.00,0.00,VWS V14.01,2013-11-26 03:23:00,
2013-11-25 22:28:00,30.2,16.4,30.31,West,259,3.0,10.0,56,0.00,,---,0.00,0.00,VWS V14.01,2013-11-26 03:28:00,
2013-11-25 22:30:00,30.2,16.4,30.31,West,261,4.0,10.0,56,0.00,,---,0.00,0.00,VWS V14.01,2013-11-26 03:30:00,
2013-11-25 22:33:00,30.2,16.4,30.31,West,261,2.0,4.0,56,0.00,,---,0.00,0.00,VWS V14.01,2013-11-26 03:33:00,
2013-11-25 22:38:00,30.2,16.4,30.31,WNW,286,2.0,10.0,56,0.00,,---,0.00,0.00,VWS V14.01,2013-11-26 03:38:00,
2013-11-25 22:43:00,30.2,16.4,30.31,SSW,213,3.0,10.0,56,0.00,,---,0.00,0.00,VWS V14.01,2013-11-26 03:43:00,
2013-11-25 22:47:00,30.2,16.4,30.32,WSW,244,3.0,10.0,56,0.00,,---,0.00,0.00,VWS V14.01,2013-11-26 03:47:00,
2013-11-25 22:52:00,30.2,16.4,30.33,West,263,2.0,10.0,56,0.00,,---,0.00,0.00,VWS V14.01,2013-11-26 03:52:00,
2013-11-25 22:57:00,30.2,16.4,30.32,SW,221,5.0,10.0,56,0.00,,---,0.00,0.00,VWS V14.01,2013-11-26 03:57:00,
2013-11-25 23:00:00,30.2,16.4,30.31,SSW,209,1.0,10.0,56,0.00,,---,0.00,0.00,VWS V14.01,2013-11-26 04:00:00,
2013-11-25 23:02:00,30.2,16.4,30.32,SSW,209,0.0,1.0,56,0.00,,---,0.00,0.00,VWS V14.01,2013-11-26 04:02:00,
2013-11-25 23:07:00,30.1,16.3,30.32,SW,214,3.0,10.0,56,0.00,,---,0.00,0.00,VWS V14.01,2013-11-26 04:07:00,
2013-11-25 23:12:00,30.2,16.4,30.32,WSW,252,2.0,10.0,56,0.00,,---,0.00,0.00,VWS V14.01,2013-11-26 04:12:00,
2013-11-25 23:17:00,30.2,16.4,30.31,WSW,249,2.0,10.0,56,0.00,,---,0.00,0.00,VWS V14.01,2013-11-26 04:17:00,
2013-11-25 23:22:00,30.1,16.3,30.32,NW,315,8.0,10.0,56,0.00,,---,0.00,0.00,VWS V14.01,2013-11-26 04:22:00,
2013-11-25 23:27:00,30.2,16.4,30.32,West,276,0.0,10.0,56,0.00,,---,0.00,0.00,VWS V14.01,2013-11-26 04:27:00,
2013-11-25 23:30:00,30.2,16.0,30.32,West,264,4.0,10.0,55,0.00,,---,0.00,0.00,VWS V14.01,2013-11-26 04:30:00,
2013-11-25 23:32:00,30.2,16.0,30.32,West,264,4.0,10.0,55,0.00,,---,0.00,0.00,VWS V14.01,2013-11-26 04:32:00,
2013-11-25 23:37:00,30.2,16.0,30.33,WSW,256,3.0,8.0,55,0.00,,---,0.00,0.00,VWS V14.01,2013-11-26 04:37:00,
2013-11-25 23:42:00,30.2,16.0,30.33,SSW,198,2.0,8.0,55,0.00,,---,0.00,0.00,VWS V14.01,2013-11-26 04:42:00,
2013-11-25 23:47:00,30.1,15.9,30.32,WSW,250,5.0,8.0,55,0.00,,---,0.00,0.00,VWS V14.01,2013-11-26 04:47:00,
2013-11-25 23:52:00,30.1,15.9,30.32,SW,223,4.0,9.0,55,0.00,,---,0.00,0.00,VWS V14.01,2013-11-26 04:52:00,
2013-11-25 23:57:00,30.1,15.9,30.32,South,179,0.0,9.0,55,0.00,,---,0.00,0.00,VWS V14.01,2013-11-26 04:57:00,